Simultaneous Nadir Overpasses (SNOs) Predictions

Prediction of SNOs between GOES-16 and NOAA-20 Satellite Orbit:

Table of predicted SNOs for the next 14.0 days since TLE Epoch: 10/10/2020
Index Date Time (GOES-16) GOES-16 Lat,Lon NOAA-20 Lat,Lon Distance(km) Time Diff (sec)
1 10/10/2020 06:44:12 -0.00, -75.24 0.97, -79.43 478.38 80
2 10/11/2020 06:22:49 -0.00, -75.25 -0.08, -74.91 38.73 80
3 10/13/2020 18:26:02 0.00, -75.30 -0.07, -75.69 45.02 80
4 10/14/2020 18:09:58 0.00, -75.31 0.91, -71.16 472.80 80
5 10/16/2020 06:31:47 -0.00, -75.32 0.23, -76.44 127.40 80
6 10/17/2020 06:10:23 0.00, -75.34 -0.75, -71.91 390.57 80
7 10/18/2020 18:32:20 0.00, -75.38 -0.44, -77.21 209.77 80
8 10/19/2020 18:16:17 -0.00, -75.40 0.61, -72.69 308.54 80
9 10/21/2020 06:38:05 -0.00, -75.42 0.60, -77.96 290.79 80
10 10/22/2020 06:16:41 0.00, -75.44 -0.45, -73.44 227.53 80
11 10/23/2020 18:38:39 0.00, -75.48 -0.73, -78.75 372.22 80
